Location: Unspecified
(0.0000°N, 0.0000°E)
Time: 13:37:22
(UTC+00:00)

A-11 Canister half - All Passes

Search period start: 20 July 2019 00:00
Search period end: 30 July 2019 00:00
Orbit: 1514 x 1685 km, 47.2° (Epoch: 19 July)

Date Brightness Start Highest point End Pass type
(mag) Time Alt. Az. Time Alt. Az. Time Alt. Az.
20 Jul - 00:36:33 10° SW 00:46:01 57° NW 00:55:48 10° NNE visible
20 Jul - 09:24:23 10° NNE 09:27:22 12° NE 09:30:21 10° ENE daylight
20 Jul - 11:23:15 10° NNW 11:32:56 67° NE 11:42:16 10° SE daylight
20 Jul - 13:30:21 10° W 13:37:42 25° SW 13:44:57 10° S daylight
20 Jul - 22:10:23 10° S 22:18:16 29° SE 22:26:19 10° ENE night (unlit)
21 Jul - 00:13:34 10° SW 00:23:05 62° NW 00:32:57 10° NNE visible
21 Jul - 02:27:17 10° NW 02:28:49 10° NW 02:30:23 10° NNW visible
21 Jul - 09:03:19 10° NE 09:04:20 10° NE 09:05:21 10° NE daylight
21 Jul - 11:00:23 10° NNW 11:10:01 62° NE 11:19:18 10° SE daylight
21 Jul - 13:07:03 10° WNW 13:14:46 27° SW 13:22:22 10° S daylight
21 Jul - 21:47:46 10° S 21:55:19 26° SE 22:03:01 10° E night (unlit)
21 Jul - 23:50:35 10° SW 00:00:08 67° NW 00:10:03 10° NNE visible
22 Jul - 02:02:32 10° WNW 02:05:46 12° NW 02:09:03 10° NNW visible
22 Jul - 10:37:31 10° NNW 10:47:06 57° NE 10:56:19 10° SE daylight
22 Jul - 12:43:46 10° WNW 12:51:50 30° SW 12:59:44 10° S daylight
22 Jul - 21:25:12 10° S 21:32:22 24° SE 21:39:39 10° E night (unlit)
22 Jul - 23:27:37 10° SW 23:37:13 73° NW 23:47:10 10° NNE visible
23 Jul - 01:38:28 10° WNW 01:42:44 13° NW 01:47:02 10° NNW visible
23 Jul - 10:14:41 10° NNW 10:24:10 52° NE 10:33:19 10° SE daylight
23 Jul - 12:20:32 10° WNW 12:28:54 33° SW 12:37:05 10° SSE daylight
23 Jul - 21:02:41 10° S 21:09:24 21° SE 21:16:14 10° E night (unlit)
23 Jul - 23:04:41 10° SW 23:14:17 78° NW 23:24:15 10° NE night (unlit)
24 Jul - 01:14:41 10° WNW 01:19:42 15° NW 01:24:48 10° NNW visible
24 Jul - 09:51:52 10° NNW 10:01:14 48° NE 10:10:17 10° ESE daylight
24 Jul - 11:57:21 10° WNW 12:05:58 36° SW 12:14:24 10° SSE daylight
24 Jul - 20:40:12 10° S 20:46:26 19° SE 20:52:46 10° E visible
24 Jul - 22:41:46 10° SW 22:51:22 85° NW 23:01:19 10° NE night (unlit)
25 Jul - 00:51:02 10° W 00:56:40 17° NW 01:02:26 10° N visible
25 Jul - 09:29:03 10° NNW 09:38:18 44° NE 09:47:14 10° ESE daylight
25 Jul - 11:34:10 10° WNW 11:43:03 40° SW 11:51:42 10° SSE daylight
25 Jul - 20:17:48 10° S 20:23:28 17° SE 20:29:12 10° E visible
25 Jul - 22:18:52 10° SW 22:28:27 89° SE 22:38:23 10° NE night (unlit)
26 Jul - 00:27:30 10° W 00:33:40 18° NW 00:39:58 10° N visible
26 Jul - 09:06:15 10° NNW 09:15:21 40° NE 09:24:09 10° ESE daylight
26 Jul - 11:11:02 10° WNW 11:20:08 44° SW 11:28:59 10° SSE daylight
26 Jul - 19:55:29 10° SSE 20:00:29 15° SE 20:05:32 10° E visible
26 Jul - 21:56:01 10° SW 22:05:32 83° SE 22:15:25 10° NE night (unlit)
27 Jul - 00:04:03 10° W 00:10:40 20° NW 00:17:27 10° N visible
27 Jul - 08:43:29 10° NNW 08:52:25 37° NE 09:01:02 10° ESE daylight
27 Jul - 10:47:54 10° WNW 10:57:12 48° SW 11:06:15 10° SSE daylight
27 Jul - 19:33:18 10° SSE 19:37:30 13° SE 19:41:43 10° ESE visible
27 Jul - 21:33:09 10° SW 21:42:37 77° SE 21:52:27 10° NE visible
27 Jul - 23:40:40 10° W 23:47:40 22° NW 23:54:52 10° N visible
28 Jul - 08:20:44 10° NNW 08:29:27 34° NE 08:37:54 10° ESE daylight
28 Jul - 10:24:49 10° NW 10:34:17 52° SW 10:43:28 10° SSE daylight
28 Jul - 19:11:22 10° SSE 19:14:30 12° SE 19:17:38 10° ESE visible
28 Jul - 21:10:18 10° SSW 21:19:43 71° SE 21:29:27 10° NE visible
28 Jul - 23:17:21 10° W 23:24:41 24° NW 23:32:14 10° N visible
29 Jul - 07:58:00 10° N 08:06:30 31° NE 08:14:43 10° ESE daylight
29 Jul - 10:01:44 10° NW 10:11:22 57° SW 10:20:42 10° SSE daylight
29 Jul - 18:50:17 10° SE 18:51:29 10° SE 18:52:42 10° SE visible
29 Jul - 20:47:29 10° SSW 20:56:48 65° SE 21:06:26 10° NE visible
29 Jul - 22:54:05 10° W 23:01:43 27° NW 23:09:35 10° N visible
